Flag for Anguilla Weather past 2 weeks in The Valley, Anguilla

Now
77 °F

Scattered clouds.


Feels Like: 78 °F
Forecast: 79 / 85 °F
Wind: 1 mph from North

Location: Juliana Airport - Saint Maarten

Current Time: May 27, 2015 at 6:54:00 AM

Latest Report: May 27, 2015 at 6:00 AM


Visibility: N/A

Pressure: 29.95 "Hg

Humidity: 83%

Dew point: 72 °F

Location of The ValleyLocation

Historic Weather in The Valley — Graph

°F

The Valley temperature yesterday

Maximum temperature yesterday: 82 °F (at 2:00 PM)
Minimum temperature yesterday: 75 °F (at 6:00 AM)
Average temperature yesterday: 80 °F

Past Weeks' High & Low Weather Summary

 TemperatureHumidityPressure
High86 °F (May 12, 3:00 PM)94% (May 19, 9:00 AM)30.15 "Hg (May 19, 9:00 AM)
Low75 °F (May 16, 12:00 AM)52% (May 13, 1:00 PM)29.95 "Hg (May 20, 4:00 PM)
Average82 °F71%30.05 "Hg
* Reported May 12 5:00 AM — May 27 5:00 AM, The Valley, Weather by CustomWeather, © 2015

Note: Actual official high and low records may vary slightly from our data, if they occured in-between our weather recording intervals... More about our weather records

Advertising

The Valley weather history for previous 24 hours

 ConditionsComfort  
Time TempWeatherWind HumidityBarometerVisibility
5:00 AM
Wed, May 27
77 °FPassing clouds.1 mph83%29.95 "HgN/A
2:00 AM77 °FPassing clouds.3 mph79%29.95 "HgN/A
1:00 AM77 °FPassing clouds.2 mph79%29.98 "HgN/A
12:00 AM79 °FPassing clouds.3 mph74%29.98 "HgN/A
11:00 PM
Tue, May 26
79 °FPassing clouds.5 mph74%30.01 "HgN/A
10:00 PM79 °FPassing clouds.5 mph74%30.01 "HgN/A
9:00 PM79 °FPassing clouds.5 mph74%30.01 "HgN/A
8:00 PM79 °FPassing clouds.5 mph74%30.01 "HgN/A
7:00 PM81 °FPassing clouds.6 mph70%29.98 "HgN/A
6:00 PM81 °FScattered clouds.1 mph74%29.98 "HgN/A
5:00 PM81 °FPartly sunny.5 mph70%29.98 "HgN/A
4:00 PM82 °FScattered clouds.5 mph70%29.98 "HgN/A
3:00 PM82 °FScattered clouds.2 mph70%29.98 "HgN/A
2:00 PM82 °FScattered clouds.3 mph70%29.98 "Hg4 mi
1:00 PM79 °FSprinkles. Scattered clouds.2 mph84%30.01 "HgN/A
12:00 PM79 °FSprinkles. Scattered clouds.6 mph79%30.01 "HgN/A
11:00 AM79 °FSprinkles. Scattered clouds.6 mph79%30.04 "HgN/A
10:00 AM81 °FScattered showers. Scattered clouds.3 mph74%30.01 "HgN/A
9:00 AM81 °FScattered clouds.5 mph74%30.04 "HgN/A
8:00 AM81 °FScattered showers. Scattered clouds.5 mph74%30.04 "HgN/A
7:00 AM79 °FScattered clouds.6 mph79%30.04 "HgN/A
6:00 AM75 °FScattered clouds.3 mph89%30.01 "HgN/A
Weather by CustomWeather, © 2015

See weather overviewHow to use our weather pages